{"data":{"norad_id":62791,"epoch":"2026-05-25T02:56:29.291136Z","epoch_age_seconds":78644,"freshness":"FRESH","line1":"1 62791U 25016G   26145.12256124  .00000113  00000+0  15691-3 0  9999","line2":"2 62791  88.9780  86.3711 0012679 225.9637 134.0471 13.51012194 69307","mean_motion":13.51012194,"eccentricity":0.0012679,"inclination_deg":88.978,"raan_deg":86.3711,"arg_perigee_deg":225.9637,"mean_anomaly_deg":134.0471,"bstar":0.00015691,"rev_number":6930,"period_min":106.58675076326,"perigee_km":1059.0951389758,"apogee_km":1077.9784143387,"semimajor_km":7446.6737766572,"source":"CELESTRAK","updated_at":"2026-05-25T13:38:03.252022Z"}}